Weather History for KBOK - June, 2013

Change the Weather History Date:

Saturday, June 22, 2013

  Actual Average Record
Temperature  
Mean Temperature 56 °F -  
Max Temperature 61 °F 66 °F 88 °F (2006)
Min Temperature 50 °F 49 °F 42 °F (1991)
Degree Days  
Heating Degree Days 10    
Growing Degree Days 6 (Base 50)    
Moisture  
Dew Point 52 °F    
Average Humidity 91    
Maximum Humidity 100    
Minimum Humidity 75    
Precipitation  
Precipitation 0.00 in - - ()
Sea Level Pressure  
Sea Level Pressure 30.05 in    
Wind  
Wind Speed 2 mph (SSW)    
Max Wind Speed 6 mph    
Max Gust Speed -    
Visibility 6 miles    
Events Fog , Rain    
Averages and records for this station are not official NWS values.
T = Trace of Precipitation, MM = Missing Value Source: NWS Daily Summary

Daily Weather History Graph

Daily Weather History Graph

Search for Another Location

Airport or City:

Trip Planner

Search our weather history database for the weather conditions in past years. The results will help you decide how hot, cold, wet, or windy it might be!

Date:

Astronomy

Jun. 22, 2013 Rise Set
Actual Time 5:41 AM PDT 8:56 PM PDT
Civil Twilight 5:07 AM PDT 9:31 PM PDT
Nautical Twilight 4:22 AM PDT 10:15 PM PDT
Astronomical Twilight 3:28 AM PDT 11:09 PM PDT
Moon 8:16 PM PDT (6/22) 5:01 AM PDT (6/22)
Length of Visible Light 16h 24m
Length of Day
15h 15m
Waxing Gibbous, 99% of the Moon is Illuminated
Jun 22
Waxing Gibbous
Jun 23
Full
Jun 29
Last Quarter
Jul 8
New
Jul 15
First Quarter

Hourly Weather History & Observations

Time (PDT) Temp. Dew Point Humidity Pressure Visibility Wind Dir Wind Speed Gust Speed Precip Events Conditions
12:56 AM 52.0 °F 50.0 °F 93% 30.10 in 10.0 mi Calm Calm - N/A   Clear
1:56 AM 52.0 °F 50.9 °F 96% 30.09 in 10.0 mi Calm Calm - N/A   Clear
2:56 AM 50.9 °F 48.9 °F 93% 30.09 in 10.0 mi East 3.5 mph - N/A   Clear
3:44 AM 51.8 °F 50.0 °F 94% 30.08 in 10.0 mi Calm Calm - N/A   Scattered Clouds
3:56 AM 50.9 °F 48.9 °F 93% 30.08 in 10.0 mi Calm Calm - N/A   Mostly Cloudy
4:46 AM 51.8 °F 50.0 °F 94% 30.07 in 10.0 mi Calm Calm - N/A   Scattered Clouds
4:56 AM 50.0 °F 48.9 °F 96% 30.06 in 10.0 mi NE 3.5 mph - N/A   Scattered Clouds
5:35 AM 50.0 °F 50.0 °F 100% 30.07 in 10.0 mi Calm Calm - N/A   Mostly Cloudy
5:56 AM 50.9 °F 50.9 °F 100% 30.07 in 3.0 mi Calm Calm - N/A   Overcast
6:00 AM 51.8 °F 51.8 °F 100% 30.07 in 1.8 mi Calm Calm - N/A   Overcast
6:13 AM 51.8 °F 51.8 °F 100% 30.06 in 1.0 mi Calm Calm - N/A   Overcast
6:20 AM 51.8 °F 51.8 °F 100% 30.06 in 0.8 mi Calm Calm - N/A   Overcast
6:24 AM 51.8 °F 51.8 °F 100% 30.06 in 1.2 mi Calm Calm - N/A   Overcast
6:28 AM 51.8 °F 51.8 °F 100% 30.06 in 2.0 mi Calm Calm - N/A   Overcast
6:43 AM 51.8 °F 51.8 °F 100% 30.06 in 4.0 mi Calm Calm - N/A   Overcast
6:56 AM 52.9 °F 52.0 °F 97% 30.07 in 2.5 mi Calm Calm - N/A   Overcast
7:03 AM 53.6 °F 51.8 °F 94% 30.06 in 8.0 mi Calm Calm - N/A   Overcast
7:28 AM 55.4 °F 51.8 °F 88% 30.06 in 10.0 mi South 3.5 mph - N/A   Scattered Clouds
7:56 AM 54.9 °F 52.0 °F 90% 30.06 in 10.0 mi Calm Calm - N/A   Clear
8:13 AM 55.4 °F 53.6 °F 94% 30.07 in 9.0 mi Variable 4.6 mph - N/A   Scattered Clouds
8:16 AM 55.4 °F 51.8 °F 88% 30.07 in 2.0 mi West 4.6 mph - N/A   Mostly Cloudy
8:18 AM 55.4 °F 51.8 °F 88% 30.07 in 1.2 mi Variable 3.5 mph - N/A   Mostly Cloudy
8:21 AM 53.6 °F 51.8 °F 94% 30.07 in 0.5 mi Calm Calm - N/A Fog Fog
8:31 AM 53.6 °F 51.8 °F 94% 30.07 in 0.2 mi Variable 3.5 mph - N/A Fog Fog
8:56 AM 52.9 °F 52.0 °F 97% 30.07 in 0.2 mi Calm Calm - N/A Fog Fog
9:02 AM 53.6 °F 51.8 °F 94% 30.07 in 0.8 mi West 4.6 mph - N/A   Overcast
9:05 AM 53.6 °F 51.8 °F 94% 30.07 in 1.5 mi WNW 4.6 mph - N/A   Overcast
9:15 AM 53.6 °F 51.8 °F 94% 30.07 in 1.0 mi Variable 3.5 mph - N/A   Overcast
9:20 AM 53.6 °F 51.8 °F 94% 30.06 in 0.5 mi Calm Calm - N/A Fog Fog
9:33 AM 53.6 °F 51.8 °F 94% 30.06 in 1.0 mi Variable 3.5 mph - N/A   Overcast
9:39 AM 53.6 °F 51.8 °F 94% 30.06 in 0.5 mi Calm Calm - N/A Fog Fog
9:46 AM 53.6 °F 51.8 °F 94% 30.06 in 1.0 mi SW 4.6 mph - N/A   Overcast
9:48 AM 53.6 °F 51.8 °F 94% 30.06 in 1.8 mi Calm Calm - N/A   Overcast
9:56 AM 54.9 °F 52.0 °F 90% 30.07 in 3.0 mi SW 4.6 mph - N/A   Overcast
9:59 AM 53.6 °F 51.8 °F 94% 30.07 in 1.8 mi SW 4.6 mph - N/A   Overcast
10:03 AM 53.6 °F 51.8 °F 94% 30.07 in 1.0 mi SW 4.6 mph - N/A   Overcast
10:07 AM 53.6 °F 51.8 °F 94% 30.07 in 0.5 mi SW 4.6 mph - N/A Fog Fog
10:26 AM 53.6 °F 51.8 °F 94% 30.06 in 1.0 mi Calm Calm - N/A   Overcast
10:33 AM 55.4 °F 51.8 °F 88% 30.06 in 1.8 mi SW 3.5 mph - N/A   Overcast
10:40 AM 57.2 °F 51.8 °F 82% 30.06 in 9.0 mi Calm Calm - N/A   Overcast
10:56 AM 56.8 °F 52.0 °F 84% 30.06 in 10.0 mi Calm Calm - N/A   Mostly Cloudy
11:07 AM 57.2 °F 51.8 °F 82% 30.06 in 10.0 mi Variable 3.5 mph - N/A   Scattered Clouds
11:56 AM 59.0 °F 52.9 °F 80% 30.06 in 10.0 mi Variable 3.5 mph - N/A   Clear
12:56 PM 57.9 °F 52.9 °F 83% 30.06 in 10.0 mi WSW 5.8 mph - N/A   Clear
1:41 PM 57.2 °F 53.6 °F 88% 30.05 in 10.0 mi Variable 4.6 mph - N/A   Partly Cloudy
1:56 PM 59.9 °F 52.9 °F 78% 30.06 in 10.0 mi Variable 3.5 mph - N/A   Partly Cloudy
2:56 PM 59.9 °F 52.9 °F 78% 30.04 in 10.0 mi Variable 3.5 mph - N/A   Clear
3:56 PM 56.8 °F 52.9 °F 87% 30.04 in 10.0 mi SW 3.5 mph - N/A   Clear
4:37 PM 60.8 °F 53.6 °F 77% 30.03 in 10.0 mi Variable 4.6 mph - N/A   Mostly Cloudy
4:56 PM 61.0 °F 54.0 °F 78% 30.03 in 10.0 mi South 4.6 mph - N/A   Overcast
5:14 PM 60.8 °F 53.6 °F 77% 30.02 in 10.0 mi SE 4.6 mph - N/A   Overcast
5:56 PM 61.9 °F 54.0 °F 75% 30.01 in 10.0 mi WSW 4.6 mph - N/A   Overcast
6:56 PM 59.0 °F 54.0 °F 83% 30.01 in 10.0 mi Calm Calm - N/A   Overcast
7:56 PM 59.0 °F 52.9 °F 80% 29.99 in 10.0 mi SE 3.5 mph - N/A   Overcast
8:20 PM 59.0 °F 53.6 °F 82% 29.98 in 10.0 mi ESE 3.5 mph - N/A   Partly Cloudy
8:56 PM 59.0 °F 52.0 °F 78% 29.97 in 10.0 mi ESE 3.5 mph - 0.00 in Rain Light Rain
9:56 PM 56.8 °F 54.0 °F 90% 29.96 in 10.0 mi Calm Calm - 0.00 in   Mostly Cloudy
10:24 PM 55.4 °F 53.6 °F 94% 29.95 in 10.0 mi Calm Calm - N/A   Scattered Clouds
10:56 PM 54.9 °F 54.0 °F 97% 29.96 in 10.0 mi Calm Calm - N/A   Scattered Clouds
11:11 PM 55.4 °F 53.6 °F 94% 29.95 in 10.0 mi Calm Calm - N/A   Mostly Cloudy
11:30 PM 55.4 °F 53.6 °F 94% 29.94 in 9.0 mi ESE 3.5 mph - N/A   Overcast
11:56 PM 55.9 °F 54.0 °F 93% 29.94 in 10.0 mi Variable 3.5 mph - N/A   Overcast